Weather History for MYNN - September, 2012

Change the Weather History Date:

Wednesday, September 19, 2012

  Actual Average Record
Temperature  
Mean Temperature 84 °F -  
Max Temperature 90 °F 86 °F - ()
Min Temperature 77 °F 73 °F - ()
Cooling Degree Days 18    
Growing Degree Days 34 (Base 50)    
Moisture  
Dew Point 75 °F    
Average Humidity 75    
Maximum Humidity 89    
Minimum Humidity 61    
Precipitation  
Precipitation 0.00 in 0.23 in - ()
Sea Level Pressure  
Sea Level Pressure 30.01 in    
Wind  
Wind Speed 3 mph ()    
Max Wind Speed 12 mph    
Max Gust Speed -    
Visibility 6.9 miles    
Events Rain , Thunderstorm , Tornado    
T = Trace of Precipitation, MM = Missing Value Source: Averaged Metar Reports

Daily Weather History Graph

Daily Weather History Graph

Search for Another Location

Airport or City:

Trip Planner

Search our weather history database for the weather conditions in past years. The results will help you decide how hot, cold, wet, or windy it might be!

Date:

Astronomy

Sep. 19, 2012 Rise Set
Actual Time 6:57 AM EDT 7:08 PM EDT
Civil Twilight 6:34 AM EDT 7:31 PM EDT
Nautical Twilight 6:08 AM EDT 7:58 PM EDT
Astronomical Twilight 5:41 AM EDT 8:25 PM EDT
Moon 10:34 AM EDT (9/19) 9:49 PM EDT (9/19)
Length of Visible Light 12h 57m
Length of Day
12h 11m
Waxing Crescent, 17% of the Moon is Illuminated
Sep 19
Waxing Crescent
Sep 22
First Quarter
Sep 29
Full
Oct 8
Last Quarter
Oct 15
New

Hourly Weather History & Observations

Time (EDT) Temp. Heat Index Dew Point Humidity Pressure Visibility Wind Dir Wind Speed Gust Speed Precip Events Conditions
12:00 AM 82.4 °F 89.5 °F 75.2 °F 79% 30.04 in 6.2 mi Calm Calm - N/A   Mostly Cloudy
1:00 AM 82.4 °F 89.5 °F 75.2 °F 79% 30.03 in 6.2 mi Calm Calm - N/A   Mostly Cloudy
2:00 AM 83 °F - 78 °F 80% 30.03 in 9 mi Calm Calm - -   Partly Cloudy
2:00 AM 82.4 °F 90.9 °F 77.0 °F 84% 30.03 in 6.2 mi Calm Calm - N/A   Scattered Clouds
3:00 AM 80.6 °F 85.4 °F 73.4 °F 79% 30.01 in 6.2 mi Calm Calm - N/A   Scattered Clouds
4:00 AM 80.6 °F 85.4 °F 73.4 °F 79% 30.01 in 6.2 mi SSE 6.9 mph - N/A   Scattered Clouds
5:00 AM 81 °F - 74 °F 75% 29.99 in 9 mi Calm Calm - -   Partly Cloudy
5:00 AM 80.6 °F 86.2 °F 75.2 °F 84% 29.99 in 6.2 mi Calm Calm - N/A   Scattered Clouds
6:00 AM 78.8 °F - 75.2 °F 89% 29.99 in 6.2 mi Calm Calm - N/A   Scattered Clouds
8:00 AM 81 °F - 74 °F 74% 29.99 in 9 mi Calm Calm - -   Scattered Clouds
8:00 AM 80.6 °F 85.4 °F 73.4 °F 79% 29.99 in 6.2 mi Calm Calm - N/A   Scattered Clouds
10:00 AM 87.8 °F 97.6 °F 75.2 °F 66% 30.01 in 6.2 mi SSW 5.8 mph - N/A   Mostly Cloudy
11:00 AM 88 °F - 78 °F 64% 30.02 in 9 mi SSE 10.4 mph - -   Scattered Clouds
11:00 AM 87.8 °F 99.7 °F 77.0 °F 70% 30.01 in 6.2 mi SSE 10.4 mph - N/A   Mostly Cloudy
12:00 PM 87.8 °F 97.6 °F 75.2 °F 66% 30.02 in 6.2 mi SSE 6.9 mph - N/A   Scattered Clouds
1:00 PM 87.8 °F 97.6 °F 75.2 °F 66% 30.00 in 6.2 mi SSE 11.5 mph - N/A   Mostly Cloudy
2:00 PM 90 °F - 78 °F 61% 29.99 in 9 mi ESE 6.9 mph - -   Scattered Clouds
2:00 PM 89.6 °F 104.7 °F 78.8 °F 70% 29.99 in 6.2 mi ESE 6.9 mph - N/A   Mostly Cloudy
3:00 PM 89.6 °F 99.8 °F 75.2 °F 62% 29.99 in 6.2 mi SE 4.6 mph - N/A   Mostly Cloudy
4:00 PM 87.8 °F 99.7 °F 77.0 °F 70% 29.98 in 6.2 mi SSE 6.9 mph - N/A   Mostly Cloudy
4:15 PM 87.8 °F 99.7 °F 77.0 °F 70% 29.97 in 6.2 mi South 6.9 mph - N/A Tornado Funnel Cloud
5:00 PM 88 °F - 78 °F 65% 30.01 in 8 mi NE 9.2 mph - - Tornado Funnel Cloud
5:00 PM 87.8 °F 99.7 °F 77.0 °F 70% 30.01 in - NE 9.2 mph - N/A Thunderstorm Thunderstorm
5:10 PM 82.4 °F 86.3 °F 69.8 °F 66% 30.01 in 6.2 mi NW 6.9 mph - N/A Thunderstorm Thunderstorm
6:00 PM 78.8 °F - 69.8 °F 74% 30.03 in 6.2 mi North 6.9 mph - N/A Rain , Thunderstorm Light Thunderstorms and Rain
6:30 PM 78.8 °F - 71.6 °F 78% 30.00 in 6.2 mi Variable 2.3 mph - N/A   Mostly Cloudy
7:00 PM 80.6 °F 84.6 °F 71.6 °F 74% 30.01 in 6.2 mi Calm Calm - N/A   Mostly Cloudy
8:00 PM 81 °F - 74 °F 73% 30.00 in 9 mi Calm Calm - -   Partly Cloudy
8:00 PM 80.6 °F 85.4 °F 73.4 °F 79% 30.00 in 6.2 mi Calm Calm - N/A   Mostly Cloudy
9:00 PM 80.6 °F 85.4 °F 73.4 °F 79% 30.03 in 6.2 mi Calm Calm - N/A   Mostly Cloudy
10:00 PM 80.6 °F 86.2 °F 75.2 °F 84% 30.05 in 6.2 mi Calm Calm - N/A   Mostly Cloudy
11:00 PM 81 °F - 76 °F 82% 30.06 in 9 mi Calm Calm - -   Partly Cloudy
11:00 PM 80.6 °F 87.1 °F 77.0 °F 89% 30.06 in 6.2 mi Calm Calm - N/A   Mostly Cloudy